EW4074 Winchester VA US current weather conditions

sailwx.info

Wind from 069

Air temperature 25.0° C
Dewpoint 23.1° C

Last reported at 2020-Aug-12 12:07 UTC.
Time now 2020-Aug-12 13:11 UTC

Location: N 39°17' W 078°07'.
View on Google Maps.

See reports from other nearby stations

  
Tides and Currents Weather Stations Pressure Air Temp Water Temp Dewpoint Dewpoint Depression Visibility Wind Speed Wind Dir Waves Ship Positions
date/time (UTC)wind fromknots sea level pressurealtimeterstation pressurevisibilityair tempwater tempwave heightnotes
2020-Aug-12 12:07 069 25.0
2020-Aug-12 12:02 161 24.4
2020-Aug-12 11:57 282 24.4
2020-Aug-12 11:52 265 23.9
2020-Aug-12 11:47 094 23.9
2020-Aug-12 11:42 132 23.3
2020-Aug-12 11:37 132 23.3
2020-Aug-12 11:32 132 23.3
2020-Aug-12 11:27 132 22.8
2020-Aug-12 11:22 132 22.8
2020-Aug-12 11:17 132 22.8
2020-Aug-12 11:12 132 22.2
2020-Aug-12 11:06 132 22.2
2020-Aug-12 11:01 132 22.2
2020-Aug-12 10:56 132 22.2
2020-Aug-12 10:51 132 22.2
2020-Aug-12 10:46 132 22.2
2020-Aug-12 10:41 132 22.2
2020-Aug-12 10:36 132 22.2
2020-Aug-12 10:31 132 22.2
2020-Aug-12 10:26 132 22.2
2020-Aug-12 10:21 132 22.2
2020-Aug-12 10:16 132 22.2
2020-Aug-12 10:11 132 22.2
2020-Aug-12 10:06 132 22.2
2020-Aug-12 10:01 132 22.2
2020-Aug-12 09:56 132 22.8
2020-Aug-12 09:51 132 22.8
2020-Aug-12 09:46 247 22.8
2020-Aug-12 09:41 247 22.8
2020-Aug-12 09:36 250 22.8
2020-Aug-12 09:31 250 22.8
2020-Aug-12 09:26 310 22.8
2020-Aug-12 09:21 349 22.8
2020-Aug-12 09:16 349 22.8
2020-Aug-12 09:11 029 22.8
2020-Aug-12 09:06 030 22.8
2020-Aug-12 09:01 029 22.8
2020-Aug-12 08:56 030 23.3
2020-Aug-12 08:51 336 23.3
2020-Aug-12 08:46 336 23.3
2020-Aug-12 08:41 336 23.3
2020-Aug-12 08:35 285 23.3
2020-Aug-12 08:30 272 23.3
2020-Aug-12 08:25 281 23.3
2020-Aug-12 08:20 281 23.3
2020-Aug-12 08:15 250 23.3
2020-Aug-12 08:10 250 23.3
2020-Aug-12 08:05 251 23.9
2020-Aug-12 07:59 269 23.9
2020-Aug-12 07:54 269 23.9
2020-Aug-12 07:49 270 23.9
2020-Aug-12 07:44 284 23.9
2020-Aug-12 07:39 278 23.9
2020-Aug-12 07:34 267 23.9
2020-Aug-12 07:29 240 24.4
2020-Aug-12 07:24 287 24.4
2020-Aug-12 07:19 302 24.4
2020-Aug-12 07:14 279 24.4
2020-Aug-12 07:09 283 23.9
2020-Aug-12 07:04 306 23.9
2020-Aug-12 06:59 350 23.9
2020-Aug-12 06:54 263 23.9
2020-Aug-12 06:49 211 23.9
2020-Aug-12 06:44 291 23.9
2020-Aug-12 06:39 055 23.9
2020-Aug-12 06:34 272 23.9
2020-Aug-12 06:29 292 23.9
2020-Aug-12 06:24 112 23.9
2020-Aug-12 06:19 266 23.9
2020-Aug-12 06:14 250 23.9
2020-Aug-12 06:09 273 23.9
2020-Aug-12 06:04 273 23.9
2020-Aug-12 05:59 267 23.9
2020-Aug-12 05:54 327 23.9
2020-Aug-12 05:49 294 23.3
2020-Aug-12 05:44 320 23.3
2020-Aug-12 05:39 036 23.3
2020-Aug-12 05:34 271 23.3
2020-Aug-12 05:29 271 23.3
2020-Aug-12 05:24 268 23.3
2020-Aug-12 05:19 268 23.9
2020-Aug-12 05:14 268 23.9
2020-Aug-12 05:09 268 23.9
2020-Aug-12 05:04 268 23.9
2020-Aug-12 04:59 284 23.9
2020-Aug-12 04:53 248 24.4
2020-Aug-12 04:48 119 24.4
2020-Aug-12 04:43 119 24.4
2020-Aug-12 04:38 119 24.4
2020-Aug-12 04:33 139 24.4
2020-Aug-12 04:28 141 24.4
2020-Aug-12 04:23 189 24.4
2020-Aug-12 04:18 122 24.4
2020-Aug-12 04:13 200 24.4
2020-Aug-12 04:08 306 24.4
2020-Aug-12 04:03 288 24.4
2020-Aug-12 03:58 294 23.9
2020-Aug-12 03:53 272 23.9
2020-Aug-12 03:48 269 23.9
2020-Aug-12 03:43 144 23.3
2020-Aug-12 03:38 144 23.3
2020-Aug-12 03:33 144 23.3
2020-Aug-12 03:28 144 23.3
2020-Aug-12 03:23 144 23.9
2020-Aug-12 03:18 144 23.9
2020-Aug-12 03:13 144 23.9
2020-Aug-12 03:08 144 23.9
2020-Aug-12 03:03 263 23.3
2020-Aug-12 02:58 189 23.3
2020-Aug-12 02:53 189 22.8
2020-Aug-12 02:48 190 22.8
2020-Aug-12 02:43 189 22.8
2020-Aug-12 02:38 189 22.8
2020-Aug-12 02:33 189 22.8
2020-Aug-12 02:28 189 22.8
2020-Aug-12 02:23 189 22.8
2020-Aug-12 02:18 189 23.3
2020-Aug-12 02:13 189 23.3
2020-Aug-12 02:08 189 23.3
2020-Aug-12 02:03 189 23.3
2020-Aug-12 01:58 189 23.3
2020-Aug-12 01:53 189 23.3
2020-Aug-12 01:48 189 23.3
2020-Aug-12 01:43 189 23.3
2020-Aug-12 01:38 190 23.3
2020-Aug-12 01:32 189 23.9
2020-Aug-12 01:27 190 23.9
2020-Aug-12 01:22 189 23.9
2020-Aug-12 01:17 189 23.9
2020-Aug-12 01:13 190 23.9
2020-Aug-12 01:07 189 23.9
2020-Aug-12 01:02 189 23.9
2020-Aug-12 00:57 189 24.4
2020-Aug-12 00:52 189 24.4
2020-Aug-12 00:47 189 24.4
2020-Aug-12 00:42 189 24.4
2020-Aug-12 00:37 189 25.0
2020-Aug-12 00:32 189 25.0
2020-Aug-12 00:27 189 25.0
2020-Aug-12 00:22 189 25.6
2020-Aug-12 00:17 189 25.6
2020-Aug-12 00:12 189 25.6
2020-Aug-12 00:07 189 26.1
2020-Aug-12 00:02 190 26.1
2020-Aug-11 23:57 189 26.1
2020-Aug-11 23:52 189 26.7
2020-Aug-11 23:47 189 26.7
2020-Aug-11 23:42 189 27.2
2020-Aug-11 23:37 189 27.2
2020-Aug-11 23:32 189 27.8
2020-Aug-11 23:27 189 28.3
2020-Aug-11 23:22 164 28.3
2020-Aug-11 23:16 155 0 gusting 3 28.9
2020-Aug-11 23:11 190 0 gusting 3 29.4
2020-Aug-11 23:06 150 0 gusting 2 29.4
2020-Aug-11 23:01 153 0 gusting 4 30.0
2020-Aug-11 22:56 130 30.6
2020-Aug-11 22:51 088 30.6
2020-Aug-11 22:46 109 30.6
2020-Aug-11 22:41 209 0 gusting 3 30.6
2020-Aug-11 22:36 161 0 gusting 3 30.6
2020-Aug-11 22:31 244 0 gusting 3 31.1
2020-Aug-11 22:26 225 1 gusting 4 31.7
2020-Aug-11 22:21 238 1 gusting 4 31.7
2020-Aug-11 22:16 160 1 gusting 3 31.7
2020-Aug-11 22:11 242 2 gusting 6 31.1
2020-Aug-11 22:06 269 2 gusting 6 31.1
2020-Aug-11 21:56 204 1 gusting 4 31.7
2020-Aug-11 21:51 134 2 gusting 4 31.7
2020-Aug-11 21:46 179 2 gusting 4 31.1
2020-Aug-11 21:41 205 1 gusting 6 31.1
2020-Aug-11 21:35 181 0 gusting 6 31.1
2020-Aug-11 21:30 143 0 gusting 3 31.1
2020-Aug-11 21:25 111 0 gusting 3 31.1
2020-Aug-11 21:20 132 0 gusting 1 31.7
2020-Aug-11 21:15 154 1 gusting 3 31.7
2020-Aug-11 21:10 159 1 gusting 4 31.7
2020-Aug-11 21:05 240 0 gusting 4 32.8
2020-Aug-11 21:00 146 0 gusting 4 33.3
2020-Aug-11 20:55 177 1 gusting 4 33.3
2020-Aug-11 20:50 142 1 gusting 4 33.3
2020-Aug-11 20:45 143 0 gusting 4 33.3
2020-Aug-11 20:40 130 1 gusting 4 33.3
2020-Aug-11 20:35 213 1 gusting 4 33.3
2020-Aug-11 20:30 204 1 gusting 4 33.3
2020-Aug-11 20:25 119 1 gusting 4 33.3
2020-Aug-11 20:20 171 1 gusting 4 33.3
2020-Aug-11 20:15 245 1 gusting 6 33.3
2020-Aug-11 20:10 152 1 gusting 6 33.3
2020-Aug-11 20:05 161 1 gusting 4 33.3
2020-Aug-11 20:00 306 0 gusting 3 33.3
2020-Aug-11 19:55 144 0 gusting 3 33.3
2020-Aug-11 19:50 332 0 gusting 1 33.3
2020-Aug-11 19:45 148 32.8
2020-Aug-11 19:40 088 32.8
2020-Aug-11 19:35 119 0 gusting 1 32.8
2020-Aug-11 19:29 094 0 gusting 2 32.8
2020-Aug-11 19:25 127 0 gusting 3 33.3
2020-Aug-11 19:19 161 0 gusting 3 32.8
2020-Aug-11 19:14 142 1 gusting 3 32.8
2020-Aug-11 19:09 067 0 gusting 3 33.3
2020-Aug-11 19:04 146 32.8
2020-Aug-11 18:59 152 0 gusting 4 32.2
2020-Aug-11 18:54 227 0 gusting 4 32.2
2020-Aug-11 18:49 065 0 gusting 5 32.2
2020-Aug-11 18:44 152 0 gusting 5 32.2
2020-Aug-11 18:39 180 32.2
2020-Aug-11 18:34 153 0 gusting 3 32.2
2020-Aug-11 18:29 210 0 gusting 3 32.8
2020-Aug-11 18:24 138 32.8
2020-Aug-11 18:19 154 32.2
2020-Aug-11 18:14 211 32.2
2020-Aug-11 18:09 134 0 gusting 3 31.7
2020-Aug-11 18:04 109 0 gusting 4 32.2
2020-Aug-11 17:59 147 0 gusting 4 32.2
2020-Aug-11 17:54 198 0 gusting 4 32.2
2020-Aug-11 17:49 205 0 gusting 2 32.2
2020-Aug-11 17:44 117 0 gusting 2 32.8
2020-Aug-11 17:39 150 0 gusting 2 32.8
2020-Aug-11 17:34 142 32.8
2020-Aug-11 17:29 109 0 gusting 2 32.2
2020-Aug-11 17:24 118 0 gusting 3 32.8
2020-Aug-11 17:19 195 1 gusting 3 32.8
2020-Aug-11 17:14 292 0 gusting 3 32.2
2020-Aug-11 17:09 308 0 gusting 6 32.8
2020-Aug-11 17:04 154 1 gusting 6 32.8
2020-Aug-11 16:59 017 0 gusting 4 32.2
2020-Aug-11 16:54 184 0 gusting 4 32.2
2020-Aug-11 16:49 322 1 gusting 4 32.2
2020-Aug-11 16:44 190 1 gusting 4 32.2
2020-Aug-11 16:38 162 0 gusting 3 32.2
2020-Aug-11 16:33 148 0 gusting 2 31.7
2020-Aug-11 16:28 165 0 gusting 2 31.7
2020-Aug-11 16:23 290 0 gusting 3 31.1
2020-Aug-11 16:18 288 0 gusting 4 31.1
2020-Aug-11 16:13 265 1 gusting 4 31.1
2020-Aug-11 16:08 328 1 gusting 2 31.1
2020-Aug-11 16:03 211 1 gusting 3 31.1
2020-Aug-11 15:58 146 0 gusting 3 31.1
2020-Aug-11 15:53 145 0 gusting 3 31.1
2020-Aug-11 15:47 284 0 gusting 1 31.1
2020-Aug-11 15:42 259 1 gusting 4 30.6
2020-Aug-11 15:37 105 0 gusting 4 30.6
2020-Aug-11 15:32 022 0 gusting 2 30.6
2020-Aug-11 15:27 124 0 gusting 3 30.6
2020-Aug-11 15:22 086 0 gusting 4 30.0
2020-Aug-11 15:17 094 0 gusting 4 30.0
2020-Aug-11 15:12 286 0 gusting 2 30.0
2020-Aug-11 15:07 271 30.6
2020-Aug-11 15:02 215 30.0
2020-Aug-11 14:57 148 30.0
2020-Aug-11 14:52 263 29.4
2020-Aug-11 14:47 303 29.4
2020-Aug-11 14:41 347 29.4
2020-Aug-11 14:36 190 0 gusting 3 29.4
2020-Aug-11 14:32 259 1 gusting 3 28.9
2020-Aug-11 14:26 291 0 gusting 2 28.9
2020-Aug-11 14:21 275 0 gusting 3 28.9
2020-Aug-11 14:16 148 1 gusting 3 28.3
2020-Aug-11 14:11 186 0 gusting 2 28.3
2020-Aug-11 14:06 103 0 gusting 3 28.3
2020-Aug-11 14:01 163 2 gusting 4 28.3
2020-Aug-11 13:56 137 1 gusting 4 28.3
2020-Aug-11 13:51 169 0 gusting 3 28.3
2020-Aug-11 13:46 115 0 gusting 2 27.8
2020-Aug-11 13:41 146 27.8
2020-Aug-11 13:36 268 0 gusting 3 27.8
2020-Aug-11 13:31 131 0 gusting 3 27.8
2020-Aug-11 13:26 224 0 gusting 2 27.2
2020-Aug-11 13:21 333 27.2
2020-Aug-11 13:16 221 26.7
2020-Aug-11 13:11 165 26.7
2020-Aug-11 13:06 306 0 gusting 2 26.7
2020-Aug-11 13:01 176 0 gusting 2 26.1
2020-Aug-11 12:56 311 25.6
2020-Aug-11 12:51 293 25.0
2020-Aug-11 12:46 300 25.0
2020-Aug-11 12:41 132 24.4
2020-Aug-11 12:36 344 23.3
2020-Aug-11 12:30 295 23.3
2020-Aug-11 12:25 132 22.8
2020-Aug-11 12:20 294 22.2
2020-Aug-11 12:15 134 22.2
2020-Aug-11 12:10 159 21.7
2020-Aug-11 12:05 159 21.7
2020-Aug-11 12:00 159 21.1
2020-Aug-11 11:55 159 20.6
2020-Aug-11 11:50 159 20.6
2020-Aug-11 11:45 159 20.0
2020-Aug-11 11:40 159 20.0
2020-Aug-11 11:35 159 19.4
2020-Aug-11 11:30 159 19.4
2020-Aug-11 11:25 159 19.4
2020-Aug-11 11:20 159 19.4
2020-Aug-11 11:15 159 18.9
2020-Aug-11 11:10 159 18.9
2020-Aug-11 11:00 159 18.9
2020-Aug-11 10:55 159 18.9
2020-Aug-11 10:49 159 18.9
2020-Aug-11 10:44 159 18.9
2020-Aug-11 10:39 159 18.9
2020-Aug-11 10:34 159 18.9
2020-Aug-11 10:29 159 18.9
2020-Aug-11 10:24 159 18.9
2020-Aug-11 10:19 159 18.9
2020-Aug-11 10:14 159 19.4
2020-Aug-11 10:09 159 18.9
2020-Aug-11 10:04 159 18.9
2020-Aug-11 09:59 159 19.4
2020-Aug-11 09:54 160 19.4
2020-Aug-11 09:49 158 19.4
2020-Aug-11 09:44 158 19.4
2020-Aug-11 09:39 158 19.4
2020-Aug-11 09:34 158 19.4
2020-Aug-11 09:29 158 19.4
2020-Aug-11 09:24 159 19.4
2020-Aug-11 09:19 158 19.4
2020-Aug-11 09:14 159 19.4
2020-Aug-11 09:09 159 19.4
2020-Aug-11 09:03 158 19.4
2020-Aug-11 08:58 158 19.4
2020-Aug-11 08:53 158 19.4
2020-Aug-11 08:48 158 19.4
2020-Aug-11 08:43 159 19.4
2020-Aug-11 08:38 158 19.4
2020-Aug-11 08:33 158 19.4
2020-Aug-11 08:28 158 19.4
2020-Aug-11 08:23 158 19.4
2020-Aug-11 08:18 158 19.4
2020-Aug-11 08:13 158 19.4
2020-Aug-11 08:08 158 19.4
2020-Aug-11 08:03 158 19.4
2020-Aug-11 07:58 158 19.4
2020-Aug-11 07:53 158 19.4
2020-Aug-11 07:48 158 19.4
2020-Aug-11 07:43 158 19.4
2020-Aug-11 07:38 158 19.4
2020-Aug-11 07:33 159 19.4
2020-Aug-11 07:28 158 19.4
2020-Aug-11 07:23 158 19.4
2020-Aug-11 07:18 158 19.4
2020-Aug-11 07:13 158 19.4
2020-Aug-11 07:08 158 19.4
2020-Aug-11 07:03 159 20.0
2020-Aug-11 06:57 158 20.0
2020-Aug-11 06:52 158 20.0
2020-Aug-11 06:47 158 20.0
2020-Aug-11 06:42 158 19.4
2020-Aug-11 06:37 158 19.4
2020-Aug-11 06:32 158 20.0
2020-Aug-11 06:27 158 19.4
2020-Aug-11 06:22 158 19.4
2020-Aug-11 06:17 158 19.4
2020-Aug-11 06:12 158 20.0
2020-Aug-11 06:07 159 20.0
2020-Aug-11 06:02 158 20.0
2020-Aug-11 05:57 158 20.0
2020-Aug-11 05:52 158 20.0
2020-Aug-11 05:47 158 20.0
2020-Aug-11 05:42 158 20.0
2020-Aug-11 05:37 158 20.0
2020-Aug-11 05:32 159 20.0
2020-Aug-11 05:27 158 20.0
2020-Aug-11 05:22 158 20.0
2020-Aug-11 05:17 158 20.0
2020-Aug-11 05:12 159 20.0
2020-Aug-11 05:07 158 20.0
2020-Aug-11 05:02 158 20.0
2020-Aug-11 04:57 158 20.0
2020-Aug-11 04:51 158 20.6
2020-Aug-11 04:46 158 20.6
2020-Aug-11 04:41 158 20.6
2020-Aug-11 04:36 158 20.6
2020-Aug-11 04:32 158 20.6
2020-Aug-11 04:26 158 20.6
2020-Aug-11 04:21 158 20.6
2020-Aug-11 04:16 158 20.6
2020-Aug-11 04:11 158 20.6
2020-Aug-11 04:06 158 20.6
2020-Aug-11 04:01 158 20.6
2020-Aug-11 03:56 158 20.6
2020-Aug-11 03:51 158 20.6
2020-Aug-11 03:46 158 20.6
2020-Aug-11 03:41 158 21.1
2020-Aug-11 03:36 158 21.1
2020-Aug-11 03:31 158 21.1
2020-Aug-11 03:26 158 21.1
2020-Aug-11 03:21 158 21.1
2020-Aug-11 03:16 158 21.1
2020-Aug-11 03:11 158 21.1
2020-Aug-11 03:06 214 21.1
2020-Aug-11 03:01 214 21.7
2020-Aug-11 02:56 214 21.7
2020-Aug-11 02:51 214 21.7
2020-Aug-11 02:46 214 21.7
2020-Aug-11 02:40 214 21.7
2020-Aug-11 02:35 214 21.7
2020-Aug-11 02:30 214 22.2
2020-Aug-11 02:25 214 22.2
2020-Aug-11 02:20 214 22.2
2020-Aug-11 02:15 214 22.2
2020-Aug-11 02:10 214 22.2
2020-Aug-11 02:05 214 22.2
2020-Aug-11 02:00 214 22.2
2020-Aug-11 01:55 214 22.8
2020-Aug-11 01:50 214 22.8
2020-Aug-11 01:45 214 22.8
2020-Aug-11 01:40 214 22.8
2020-Aug-11 01:35 214 23.3
2020-Aug-11 01:25 214 23.3
2020-Aug-11 01:20 214 23.9
2020-Aug-11 01:15 214 23.9
2020-Aug-11 01:10 214 23.9
2020-Aug-11 01:05 214 24.4
2020-Aug-11 01:00 214 24.4
2020-Aug-11 00:55 214 24.4
2020-Aug-11 00:50 214 25.0
2020-Aug-11 00:44 214 25.0
2020-Aug-11 00:39 214 25.6
2020-Aug-11 00:34 214 25.6
2020-Aug-11 00:29 214 25.6
2020-Aug-11 00:24 158 25.6
2020-Aug-11 00:19 154 25.6
2020-Aug-11 00:14 017 25.0
2020-Aug-11 00:09 273 25.0
2020-Aug-11 00:04 273 25.6
2020-Aug-10 23:59 273 25.6
2020-Aug-10 23:54 273 25.6
2020-Aug-10 23:49 273 26.1
2020-Aug-10 23:44 273 26.7
2020-Aug-10 23:39 273 26.7
2020-Aug-10 23:34 273 27.2
2020-Aug-10 23:29 273 27.2
2020-Aug-10 23:24 273 27.8
2020-Aug-10 23:19 273 27.8
2020-Aug-10 23:14 273 28.3
2020-Aug-10 23:09 273 28.9
2020-Aug-10 23:04 273 28.9
2020-Aug-10 22:59 273 29.4
2020-Aug-10 22:54 273 30.0
2020-Aug-10 22:49 273 30.6
2020-Aug-10 22:44 273 31.1
2020-Aug-10 22:39 273 31.7
2020-Aug-10 22:34 273 31.7
2020-Aug-10 22:29 273 31.7
2020-Aug-10 22:24 273 32.2
2020-Aug-10 22:19 273 32.8
2020-Aug-10 22:14 266 32.8
2020-Aug-10 22:09 076 32.8
2020-Aug-10 22:04 076 32.2
2020-Aug-10 21:59 076 0 gusting 3 32.2
2020-Aug-10 21:54 355 0 gusting 3 32.2
2020-Aug-10 21:49 119 32.8
2020-Aug-10 21:44 009 32.2
2020-Aug-10 21:39 093 32.8
2020-Aug-10 21:34 107 32.8
2020-Aug-10 21:29 107 33.3
2020-Aug-10 21:24 096 33.3
2020-Aug-10 21:19 045 33.9
2020-Aug-10 21:14 255 0 gusting 2 33.9
2020-Aug-10 21:09 196 0 gusting 2 33.9
2020-Aug-10 21:04 197 0 gusting 2 33.3
2020-Aug-10 20:59 104 0 gusting 2 33.3
2020-Aug-10 20:53 032 0 gusting 3 33.3
2020-Aug-10 20:48 345 0 gusting 3 33.3
2020-Aug-10 20:43 344 0 gusting 3 33.3
2020-Aug-10 20:38 184 0 gusting 3 33.3
2020-Aug-10 20:33 184 1 gusting 5 33.3
2020-Aug-10 20:28 152 1 gusting 5 33.3
2020-Aug-10 20:23 298 0 gusting 3 33.9
2020-Aug-10 20:18 271 0 gusting 1 33.3
2020-Aug-10 20:13 131 0 gusting 6 33.3
2020-Aug-10 20:08 073 0 gusting 6 33.3
2020-Aug-10 20:03 099 0 gusting 1 33.3
2020-Aug-10 19:58 260 0 gusting 1 33.3
2020-Aug-10 19:53 099 0 gusting 3 33.3
2020-Aug-10 19:48 233 1 gusting 3 33.3
2020-Aug-10 19:43 321 1 gusting 3 33.3
2020-Aug-10 19:38 265 0 gusting 3 33.3
2020-Aug-10 19:33 015 0 gusting 3 33.3
2020-Aug-10 19:28 204 0 gusting 2 33.9
2020-Aug-10 19:23 149 33.9
2020-Aug-10 19:18 143 33.3
2020-Aug-10 19:13 054 0 gusting 2 33.3
2020-Aug-10 19:08 236 0 gusting 3 33.3
2020-Aug-10 19:03 150 0 gusting 3 32.8
2020-Aug-10 18:58 254 0 gusting 1 32.8
2020-Aug-10 18:53 205 0 gusting 3 32.8
2020-Aug-10 18:48 244 0 gusting 3 32.2
2020-Aug-10 18:43 290 32.2
2020-Aug-10 18:38 257 32.8
2020-Aug-10 18:33 303 0 gusting 3 32.8
2020-Aug-10 18:28 168 1 gusting 6 32.8
2020-Aug-10 18:23 161 0 gusting 6 32.8
2020-Aug-10 18:18 161 0 gusting 3 32.2
2020-Aug-10 18:13 124 0 gusting 3 32.2
2020-Aug-10 18:08 042 0 gusting 3 32.2
2020-Aug-10 18:03 248 0 gusting 3 32.8
2020-Aug-10 17:58 217 0 gusting 1 32.8
2020-Aug-10 17:53 161 0 gusting 4 32.2
2020-Aug-10 17:48 111 0 gusting 4 32.8
2020-Aug-10 17:43 070 32.8
2020-Aug-10 17:38 148 0 gusting 2 32.8
2020-Aug-10 17:32 132 0 gusting 4 32.2
2020-Aug-10 17:27 144 0 gusting 4 32.2
2020-Aug-10 17:22 149 0 gusting 4 31.7
2020-Aug-10 17:17 298 0 gusting 4 31.7
2020-Aug-10 17:12 311 0 gusting 4 31.7
2020-Aug-10 17:07 100 0 gusting 4 31.7
2020-Aug-10 17:02 305 0 gusting 3 31.7
2020-Aug-10 16:56 180 31.7
2020-Aug-10 16:51 147 0 gusting 1 31.1
2020-Aug-10 16:46 275 0 gusting 2 31.1
2020-Aug-10 16:41 040 0 gusting 2 31.1
2020-Aug-10 16:36 306 0 gusting 2 31.1
2020-Aug-10 16:31 140 31.7
2020-Aug-10 16:26 207 0 gusting 3 31.1
2020-Aug-10 16:21 025 0 gusting 3 30.6
2020-Aug-10 16:16 278 0 gusting 1 30.6
2020-Aug-10 16:11 128 0 gusting 4 30.6
2020-Aug-10 16:06 246 0 gusting 4 30.6
2020-Aug-10 16:01 158 1 gusting 4 30.0
2020-Aug-10 15:56 115 0 gusting 4 30.0
2020-Aug-10 15:51 057 0 gusting 3 30.6
2020-Aug-10 15:46 036 0 gusting 2 30.6
2020-Aug-10 15:41 065 0 gusting 2 30.0
2020-Aug-10 15:36 280 0 gusting 2 30.0
2020-Aug-10 15:31 140 0 gusting 2 30.0
2020-Aug-10 15:26 203 0 gusting 3 29.4
2020-Aug-10 15:21 298 0 gusting 3 30.0
2020-Aug-10 15:16 150 0 gusting 2 30.0
2020-Aug-10 15:11 011 0 gusting 2 29.4
2020-Aug-10 15:06 244 0 gusting 2 29.4
2020-Aug-10 15:01 236 0 gusting 2 29.4
2020-Aug-10 14:56 146 0 gusting 2 29.4
2020-Aug-10 14:51 257 0 gusting 5 28.9
2020-Aug-10 14:46 312 0 gusting 5 28.9
2020-Aug-10 14:41 320 0 gusting 2 28.9
2020-Aug-10 14:36 029 0 gusting 3 28.9
2020-Aug-10 14:31 153 0 gusting 3 28.3
2020-Aug-10 14:26 280 0 gusting 2 28.3
2020-Aug-10 14:21 307 0 gusting 2 28.3
2020-Aug-10 14:16 144 0 gusting 2 28.3
2020-Aug-10 14:11 294 0 gusting 2 28.3
2020-Aug-10 14:06 105 0 gusting 1 27.8
2020-Aug-10 14:01 317 0 gusting 2 27.8
2020-Aug-10 13:56 288 27.2
2020-Aug-10 13:51 343 27.2
2020-Aug-10 13:46 265 26.7
2020-Aug-10 13:41 084 26.7
2020-Aug-10 13:36 269 0 gusting 2 26.1
2020-Aug-10 13:31 279 0 gusting 3 26.1
2020-Aug-10 13:26 294 0 gusting 3 26.1
2020-Aug-10 13:21 328 0 gusting 3 26.1
2020-Aug-10 13:16 248 0 gusting 3 26.1
2020-Aug-10 13:11 119 0 gusting 3 25.6
2020-Aug-10 13:05 106 0 gusting 3 25.6
2020-Aug-10 13:00 291 0 gusting 3 25.0